Theta_e
357 354 354 356 354 353 352 354 362 363 363 363 361 359 354 350 347 345 341 338 336 328
358 358 356 359 360 356 361 356 362 363 361 360 357 352 349 346 344 342 340 335 333 329
357 360 360 360 360 360 361 363 362 362 359 358 353 347 347 343 340 339 332 332 333 330
357 359 360 359 360 361 363 364 364 362 359 354 347 343 345 340 336 332 332 334 331 327
358 359 358 360 360 362 362 364 364 360 356 349 344 342 340 335 331 331 331 331 329 324
357 357 358 358 361 363 363 363 360 356 349 340 341 338 335 331 330 330 331 330 326 322
356 357 357 361 363 363 364 361 357 352 344 338 333 335 331 330 330 330 329 328 324 322
359 360 361 362 363 364 363 359 355 344 335 329 331 330 331 330 330 329 327 327 323 320
360 361 361 363 364 363 360 356 347 338 332 326 326 320 323 329 327 326 326 325 323 322
362 360 362 363 363 360 355 348 342 332 326 328 324 319 320 323 326 325 327 325 324 320
363 361 362 363 360 357 350 342 334 328 326 328 325 318 318 320 326 326 325 325 323 322
361 361 361 362 358 351 345 338 330 323 324 325 319 315 315 318 325 324 323 323 322 318
363 363 362 362 354 350 343 335 327 323 326 322 322 312 311 316 322 322 319 319 319 306
363 365 365 361 350 344 339 330 324 322 324 325 323 316 309 310 322 319 316 316 314 314
Wind_Speed
14 10 9 9 7 6 5 4 1 4 4 1 3 4 4 4 3 3 3 4 5 4
13 13 10 9 7 7 6 5 5 5 2 4 5 5 5 4 3 2 2 3 3 3
13 12 11 10 11 9 6 5 5 4 5 6 6 5 3 4 4 3 2 2 2 4
13 13 12 11 11 9 8 7 6 6 7 7 6 4 2 3 3 3 3 2 3 4
13 13 13 12 11 10 9 8 8 9 8 7 6 4 3 1 3 3 2 2 2 4
14 14 14 12 11 10 10 10 10 9 9 9 7 5 4 3 3 3 2 2 3 4
16 15 13 12 12 11 11 11 11 10 10 8 7 6 5 5 4 4 3 2 3 4
15 14 13 13 13 13 13 12 11 11 10 8 7 6 7 6 5 4 3 2 1 5
15 14 14 14 14 13 13 12 11 12 12 9 6 8 4 2 4 4 3 3 1 2
15 16 15 15 15 15 14 13 12 12 11 7 7 8 7 1 4 4 2 2 1 3
16 15 15 15 15 14 14 14 13 12 9 9 7 9 9 5 5 4 3 2 1 2
17 16 17 17 15 13 15 13 13 12 10 8 9 10 10 8 6 5 4 3 1 4
16 16 17 17 15 15 14 14 12 11 9 11 11 10 9 8 4 5 4 4 5 4
16 16 16 15 14 15 15 14 14 13 10 8 10 10 8 4 5 3 5 2 3 5
Wind_Direction
214 223 227 229 260 262 269 272 2 250 266 234 165 103 120 128 75 54 46 36 20 2
209 222 233 241 236 240 244 260 223 248 222 172 139 134 155 91 107 82 36 93 63 350
210 215 222 228 234 249 260 234 238 210 172 160 146 150 190 166 107 84 73 71 69 346
211 212 216 223 226 230 225 214 201 190 166 158 147 155 126 80 109 103 108 99 59 44
210 209 215 220 219 219 211 197 194 173 165 153 155 163 179 184 107 144 143 116 60 33
205 209 216 215 212 207 199 187 177 169 161 159 156 165 157 138 138 135 126 96 65 36
207 208 208 207 205 197 182 183 173 165 158 156 149 171 156 148 150 146 133 100 56 43
206 204 205 199 197 189 185 178 166 155 147 153 168 180 158 157 160 162 161 121 122 74
200 200 201 196 191 175 178 166 160 161 152 159 202 111 93 160 159 170 180 180 123 147
199 200 197 191 181 179 168 162 166 157 149 150 138 156 148 101 154 186 163 196 263 282
197 197 191 188 183 174 167 169 159 146 138 147 148 158 150 162 154 159 185 206 228 326
194 192 188 185 177 171 167 160 154 150 147 150 145 160 163 201 169 151 182 181 63 344
188 190 187 180 168 168 164 158 150 143 158 159 150 164 178 219 191 175 194 208 143 102
185 187 183 165 161 165 163 149 148 147 154 170 157 158 181 207 240 207 206 210 180 109